This demonstration page uses our WeatherBlox Daily Observations layout. Learn more.

Left ArrowRight Arrow

Hourly Observations for January 28, 2022

Temp ( °F °C ) Dew Point ( °F °C ) Humidity (%) Winds ( mph kmh ) Pressure ( in mb ) Visibility ( mi km ) Precip ( " mm )
12:53 am 00:53 Cloudy 38 3.3 22 -5.6 52 52 ENE 15 24 30.45 1031 10 16 0.00 0.00
1:53 am 01:53 Cloudy 38 3.3 22 -5.6 52 52 ENE 14 22 30.47 1032 10 16 0.00 0.00
2:53 am 02:53 Mostly Clear 35 1.7 23 -5 61 61 NNE 10 17 30.52 1033 10 16 0.00 0.00
3:53 am 03:53 Cloudy 33 0.6 22 -5.6 64 64 NNE 12 19 30.53 1034 10 16 0.00 0.00
4:53 am 04:53 Clear 29 -1.7 20 -6.7 69 69 N 8 13 30.54 1034 10 16 0.00 0.00
5:53 am 05:53 Clear 26 -3.3 18 -7.8 71 71 NNW 8 13 30.55 1034 10 16 0.00 0.00
6:53 am 06:53 Clear 24 -4.4 17 -8.3 75 75 W 8 13 30.58 1036 10 16 0.00 0.00
7:53 am 07:53 Sunny 23 -5 16 -8.9 74 74 WNW 7 11 30.61 1037 10 16 0.00 0.00
8:53 am 08:53 Sunny 30 -1.1 19 -7.2 64 64 NW 5 7 30.62 1037 10 16 0.00 0.00
9:53 am 09:53 Sunny 36 2.2 20 -6.7 52 52 N 10 17 30.62 1037 10 16 0.00 0.00
10:53 am 10:53 Sunny 39 3.9 20 -6.7 46 46 VRB 6 9 30.62 1037 10 16 0.00 0.00
11:53 am 11:53 Sunny 41 5 18 -7.8 39 39 VRB 5 7 30.60 1036 10 16 0.00 0.00
12:53 pm 12:53 Sunny 45 7.2 17 -8.3 33 33 NNE 5 7 30.55 1035 10 16 0.00 0.00
1:53 pm 13:53 Sunny 46 7.8 17 -8.3 31 31 VRB 3 6 30.51 1033 10 16 0.00 0.00
2:53 pm 14:53 Sunny 49 9.4 16 -8.9 27 27 VRB 5 7 30.48 1032 10 16 0.00 0.00
3:53 pm 15:53 Sunny 49 9.4 15 -9.4 26 26 Calm 30.47 1032 10 16 0.00 0.00
4:53 pm 16:53 Sunny 49 9.4 15 -9.4 26 26 WNW 3 6 30.46 1032 10 16 0.00 0.00
5:53 pm 17:53 Sunny 49 9.4 15 -9.4 26 26 Calm 30.46 1032 10 16 0.00 0.00
6:53 pm 18:53 Clear 45 7.2 13 -10.6 27 27 SW 6 9 30.48 1032 10 16 0.00 0.00
7:53 pm 19:53 Clear 39 3.9 12 -11.1 33 33 WSW 9 15 30.50 1033 10 16 0.00 0.00
8:53 pm 20:53 Clear 35 1.7 11 -11.7 37 37 WSW 10 17 30.50 1033 10 16 0.00 0.00
9:53 pm 21:53 Clear 33 0.6 11 -11.7 40 40 WSW 9 15 30.49 1033 10 16 0.00 0.00
10:53 pm 22:53 Clear 31 -0.6 11 -11.7 43 43 W 8 13 30.49 1033 10 16 0.00 0.00
11:53 pm 23:53 Clear 26 -3.3 9 -12.8 48 48 NW 5 7 30.48 1032 10 16 0.00 0.00

Powered by AerisWeather